Location: Cambroso
(45.2833°N, 12.0850°E)
Time: 19:27:17
(UTC+00:00)

SL-14 R/B - Pass Details

Date: 21 January 2021
Orbit: 520 x 553 km, 82.4° (Epoch: 28 February)

Event Time Altitude Azimuth Distance (km) Brightness Sun altitude
Rises 16:49:49 0° 198° (SSW) 2,640 7.4 -8.3°
Reaches altitude 10° 16:51:58 10° 203° (SSW) 1,761 6.5 -8.6°
Maximum altitude 16:55:46 54° 282° (WNW) 646 4.0 -9.3°
Drops below altitude 10° 16:59:38 10° 0° (N) 1,793 5.8 -9.9°
Sets 17:01:50 0° 5° (N) 2,694 6.6 -10.3°
